Location: Marcé
(47.5801°N, 0.3280°W)
Time: 17:24:02
(UTC+01:00)

SR - Pass Details

Date: 02 December 2021
Orbit: 582 x 872 km, 66.7° (Epoch: 22 January)

Event Time Altitude Azimuth Distance (km) Brightness Sun altitude
Rises 23:44:30 0° 175° (S) 3,000 - -61.2°
Reaches altitude 10° 23:47:19 10° 160° (SSE) 2,042 - -61.5°
Maximum altitude 23:50:43 21° 112° (ESE) 1,409 - -61.8°
Drops below altitude 10° 23:54:00 10° 63° (ENE) 1,957 - -62.1°
Sets 23:56:37 0° 47° (NE) 2,838 - -62.3°
